�������l�o���
Date,Time,MP-1(��Sv/h),MP-2(��Sv/h),MP-3(��Sv/h),MP-4(��Sv/h),MP-5(��Sv/h),MP-6(��Sv/h),MP-7(��Sv/h),����,����(m/s),���J
2019/06/01,00:00,0.196,0.179,0.298,0.281,0.271,0.150,0.092,�k�k��,0.8,�L
2019/06/01,00:10,0.195,0.177,0.297,0.280,0.273,0.150,0.093,-,CALM,�L
2019/06/01,00:20,0.197,0.179,0.298,0.282,0.271,0.150,0.093,�k�k��,0.9,�L
2019/06/01,00:30,0.196,0.180,0.298,0.281,0.273,0.151,0.093,�k��,1.5,�L
2019/06/01,00:40,0.197,0.179,0.297,0.280,0.273,0.151,0.094,-,CALM,�L
2019/06/01,00:50,0.195,0.179,0.298,0.281,0.274,0.150,0.094,-,CALM,�L
2019/06/01,01:00,0.197,0.178,0.299,0.280,0.272,0.150,0.093,-,CALM,�L
2019/06/01,01:10,0.195,0.179,0.296,0.281,0.273,0.150,0.094,���쐼,0.9,�L
2019/06/01,01:20,0.197,0.178,0.299,0.279,0.272,0.151,0.093,���쐼,1.6,�L
2019/06/01,01:30,0.196,0.179,0.297,0.282,0.273,0.152,0.095,��,2.2,�L
2019/06/01,01:40,0.198,0.179,0.299,0.279,0.273,0.152,0.095,��,2.3,�L
2019/06/01,01:50,0.196,0.180,0.297,0.282,0.274,0.151,0.095,��,1.7,�L
2019/06/01,02:00,0.197,0.179,0.296,0.281,0.273,0.152,0.095,���k��,1.5,�L
2019/06/01,02:10,0.196,0.178,0.297,0.279,0.272,0.151,0.095,���k��,1.7,�L
2019/06/01,02:20,0.197,0.179,0.298,0.280,0.272,0.150,0.093,-,CALM,��
2019/06/01,02:30,0.194,0.179,0.297,0.281,0.271,0.151,0.093,��,2.0,�L
2019/06/01,02:40,0.196,0.178,0.297,0.279,0.272,0.150,0.093,��,1.2,�L
2019/06/01,02:50,0.195,0.176,0.297,0.278,0.270,0.149,0.093,�k��,0.6,�L
2019/06/01,03:00,0.197,0.177,0.294,0.281,0.271,0.149,0.092,-,CALM,��
2019/06/01,03:10,0.195,0.177,0.297,0.278,0.270,0.149,0.092,�k��,0.9,��
2019/06/01,03:20,0.194,0.177,0.295,0.278,0.271,0.147,0.092,���k��,1.5,�L
2019/06/01,03:30,0.193,0.176,0.297,0.277,0.271,0.149,0.092,-,CALM,�L
2019/06/01,03:40,0.195,0.178,0.295,0.280,0.270,0.149,0.092,���k��,2.2,�L
2019/06/01,03:50,0.194,0.177,0.298,0.278,0.270,0.149,0.092,���k��,2.1,��
2019/06/01,04:00,0.195,0.177,0.295,0.278,0.270,0.148,0.092,�k��,2.0,��
2019/06/01,04:10,0.194,0.177,0.297,0.277,0.270,0.148,0.091,�k��,2.2,��
2019/06/01,04:20,0.195,0.177,0.295,0.279,0.271,0.149,0.091,�k��,2.2,��
2019/06/01,04:30,0.195,0.177,0.296,0.277,0.269,0.148,0.092,�k��,2.2,��
2019/06/01,04:40,0.195,0.176,0.294,0.278,0.272,0.148,0.092,�k��,2.3,��
2019/06/01,04:50,0.193,0.177,0.295,0.278,0.270,0.148,0.091,�k��,1.8,��
2019/06/01,05:00,0.193,0.175,0.294,0.278,0.270,0.148,0.092,�k��,1.8,��
2019/06/01,05:10,0.193,0.177,0.295,0.277,0.268,0.149,0.091,�k��,1.4,��
2019/06/01,05:20,0.195,0.178,0.295,0.278,0.271,0.148,0.091,���k��,1.1,��
2019/06/01,05:30,0.194,0.176,0.294,0.277,0.270,0.148,0.091,�k��,2.2,��
2019/06/01,05:40,0.194,0.175,0.296,0.277,0.270,0.147,0.091,�k��,2.0,��
2019/06/01,05:50,0.193,0.177,0.294,0.277,0.267,0.148,0.091,�k�k��,1.3,��
2019/06/01,06:00,0.194,0.176,0.295,0.276,0.271,0.148,0.091,�k�k��,1.2,��
2019/06/01,06:10,0.193,0.175,0.294,0.278,0.269,0.148,0.091,�k�k��,0.8,��
2019/06/01,06:20,0.193,0.176,0.296,0.276,0.271,0.147,0.091,�k,1.2,��
2019/06/01,06:30,0.193,0.175,0.294,0.278,0.268,0.147,0.091,�k,1.1,��
2019/06/01,06:40,0.194,0.176,0.296,0.276,0.271,0.148,0.091,�k,0.9,��
2019/06/01,06:50,0.192,0.177,0.293,0.278,0.270,0.148,0.090,-,CALM,��
2019/06/01,07:00,0.194,0.174,0.296,0.276,0.269,0.148,0.091,-,CALM,��
2019/06/01,07:10,0.193,0.175,0.295,0.276,0.270,0.148,0.092,�k�k��,0.9,��
2019/06/01,07:20,0.194,0.176,0.291,0.278,0.268,0.148,0.090,�k�k��,0.8,��
2019/06/01,07:30,0.193,0.174,0.294,0.275,0.272,0.148,0.091,-,CALM,��
2019/06/01,07:40,0.194,0.176,0.295,0.277,0.268,0.148,0.092,�k��,0.6,��
2019/06/01,07:50,0.194,0.176,0.293,0.277,0.270,0.148,0.090,�k��,0.6,��
2019/06/01,08:00,0.192,0.176,0.291,0.275,0.270,0.148,0.091,�k�k��,1.2,��
2019/06/01,08:10,0.195,0.177,0.294,0.274,0.268,0.148,0.091,�k�k��,1.3,��
2019/06/01,08:20,0.192,0.176,0.294,0.277,0.269,0.148,0.092,�k�k��,2.2,��
2019/06/01,08:30,0.195,0.174,0.293,0.279,0.271,0.148,0.091,�k��,2.8,��
2019/06/01,08:40,0.193,0.177,0.296,0.277,0.271,0.149,0.091,�k��,3.1,��
2019/06/01,08:50,0.194,0.176,0.297,0.276,0.268,0.149,0.091,���k��,3.5,��
2019/06/01,09:00,0.195,0.174,0.293,0.275,0.269,0.147,0.092,���k��,3.6,��
2019/06/01,09:10,0.193,0.177,0.296,0.275,0.274,0.150,0.091,���k��,3.9,��
2019/06/01,09:20,0.192,0.178,0.296,0.276,0.271,0.149,0.091,���k��,3.3,��
2019/06/01,09:30,0.195,0.176,0.294,0.281,0.270,0.148,0.091,���k��,3.4,��
2019/06/01,09:40,0.193,0.176,0.297,0.279,0.269,0.149,0.092,���k��,3.2,��
2019/06/01,09:50,0.192,0.177,0.295,0.278,0.273,0.148,0.091,���k��,4.1,��
2019/06/01,10:00,0.191,0.177,0.294,0.276,0.271,0.148,0.091,���k��,3.7,��
2019/06/01,10:10,0.193,0.176,0.298,0.276,0.269,0.149,0.091,���k��,1.3,��
2019/06/01,10:20,0.194,0.176,0.294,0.277,0.268,0.148,0.091,���k��,2.2,��
2019/06/01,10:30,0.193,0.178,0.292,0.281,0.273,0.148,0.092,���k��,1.7,��
2019/06/01,10:40,0.193,0.177,0.297,0.279,0.271,0.147,0.091,��,3.0,��
2019/06/01,10:50,0.195,0.176,0.297,0.276,0.269,0.149,0.090,��,2.6,��
2019/06/01,11:00,0.194,0.177,0.293,0.279,0.271,0.148,0.092,�쓌,1.8,��
2019/06/01,11:10,0.193,0.178,0.293,0.279,0.274,0.148,0.092,���쓌,1.7,��
2019/06/01,11:20,0.194,0.177,0.298,0.278,0.271,0.150,0.092,���쓌,2.7,��
2019/06/01,11:30,0.195,0.176,0.295,0.276,0.269,0.149,0.091,���쓌,3.0,��
2019/06/01,11:40,0.194,0.177,0.293,0.280,0.269,0.149,0.091,�쓌,2.3,��
2019/06/01,11:50,0.193,0.177,0.294,0.281,0.272,0.148,0.092,��쓌,3.0,��
2019/06/01,12:00,0.192,0.176,0.296,0.278,0.273,0.149,0.092,���쓌,3.4,��
2019/06/01,12:10,0.193,0.175,0.297,0.279,0.271,0.149,0.092,�쓌,4.1,��
2019/06/01,12:20,0.195,0.176,0.295,0.276,0.270,0.148,0.091,���쓌,2.6,��
2019/06/01,12:30,0.195,0.179,0.294,0.278,0.269,0.147,0.091,�쓌,2.5,��
2019/06/01,12:40,0.193,0.177,0.293,0.281,0.268,0.148,0.092,�쓌,3.4,��
2019/06/01,12:50,0.192,0.177,0.298,0.279,0.273,0.149,0.091,�쓌,3.4,��
2019/06/01,13:00,0.191,0.176,0.297,0.279,0.273,0.149,0.091,�쓌,3.8,��
2019/06/01,13:10,0.194,0.178,0.296,0.278,0.272,0.149,0.091,�쓌,4.8,��
2019/06/01,13:20,0.195,0.179,0.294,0.277,0.271,0.148,0.091,�쓌,4.8,��
2019/06/01,13:30,0.196,0.176,0.293,0.279,0.269,0.148,0.091,�쓌,4.4,��
2019/06/01,13:40,0.193,0.177,0.297,0.283,0.269,0.149,0.091,�쓌,4.3,��
2019/06/01,13:50,0.192,0.178,0.297,0.281,0.268,0.149,0.091,�쓌,4.1,��
2019/06/01,14:00,0.196,0.177,0.297,0.278,0.273,0.149,0.090,��쓌,4.5,��
2019/06/01,14:10,0.196,0.177,0.295,0.278,0.273,0.150,0.090,��쓌,4.4,��
2019/06/01,14:20,0.195,0.175,0.293,0.278,0.272,0.149,0.092,��쓌,4.2,��
2019/06/01,14:30,0.193,0.178,0.294,0.282,0.271,0.148,0.092,�쓌,3.7,��
2019/06/01,14:40,0.193,0.177,0.300,0.281,0.270,0.148,0.091,��쓌,3.9,��
2019/06/01,14:50,0.192,0.176,0.298,0.279,0.270,0.148,0.091,��쓌,5.0,��
2019/06/01,15:00,0.193,0.176,0.296,0.278,0.269,0.149,0.091,��쓌,5.9,��
2019/06/01,15:10,0.193,0.177,0.295,0.282,0.269,0.149,0.092,��쓌,5.9,��
2019/06/01,15:20,0.195,0.178,0.295,0.280,0.269,0.149,0.091,��쓌,6.6,��
2019/06/01,15:30,0.195,0.178,0.295,0.279,0.270,0.149,0.091,��쓌,6.6,��
2019/06/01,15:40,0.193,0.176,0.298,0.282,0.270,0.148,0.091,��쓌,6.3,��
2019/06/01,15:50,0.193,0.177,0.297,0.279,0.275,0.150,0.092,�쓌,4.9,��
2019/06/01,16:00,0.192,0.179,0.296,0.281,0.275,0.149,0.091,��쓌,6.6,��
2019/06/01,16:10,0.194,0.178,0.298,0.282,0.271,0.149,0.091,��쓌,7.1,��
2019/06/01,16:20,0.197,0.177,0.299,0.278,0.269,0.148,0.092,��쓌,7.3,��
2019/06/01,16:30,0.195,0.178,0.297,0.283,0.269,0.149,0.091,��쓌,6.7,��
2019/06/01,16:40,0.193,0.177,0.299,0.280,0.272,0.149,0.092,��쓌,6.3,��
2019/06/01,16:50,0.194,0.179,0.298,0.280,0.274,0.148,0.091,��쓌,8.2,��
2019/06/01,17:00,0.195,0.177,0.296,0.282,0.273,0.149,0.092,��쓌,8.1,��
2019/06/01,17:10,0.196,0.177,0.299,0.278,0.270,0.149,0.092,��쓌,8.5,��
2019/06/01,17:20,0.194,0.179,0.296,0.281,0.271,0.149,0.091,��쓌,9.8,��
2019/06/01,17:30,0.196,0.177,0.299,0.281,0.274,0.148,0.091,��,10.4,��
2019/06/01,17:40,0.195,0.179,0.298,0.280,0.274,0.149,0.092,��,9.2,��
2019/06/01,17:50,0.194,0.177,0.298,0.282,0.271,0.148,0.092,��,9.5,��
2019/06/01,18:00,0.197,0.178,0.298,0.279,0.275,0.149,0.092,��,7.7,�L
2019/06/01,18:10,0.195,0.179,0.297,0.282,0.272,0.149,0.092,��,5.4,��
2019/06/01,18:20,0.195,0.177,0.299,0.280,0.274,0.149,0.091,��쐼,4.8,��
2019/06/01,18:30,0.196,0.178,0.298,0.283,0.273,0.149,0.091,��,4.8,��
2019/06/01,18:40,0.194,0.176,0.297,0.280,0.271,0.149,0.092,��쐼,5.9,��
2019/06/01,18:50,0.196,0.178,0.298,0.279,0.275,0.150,0.092,��쐼,6.3,��
2019/06/01,19:00,0.195,0.178,0.297,0.283,0.272,0.149,0.092,��쐼,7.3,��
2019/06/01,19:10,0.195,0.178,0.299,0.278,0.274,0.148,0.091,��쐼,7.0,��
2019/06/01,19:20,0.196,0.178,0.296,0.283,0.273,0.149,0.091,��쐼,5.9,��
2019/06/01,19:30,0.194,0.179,0.298,0.279,0.273,0.148,0.091,��쐼,4.8,��
2019/06/01,19:40,0.195,0.178,0.297,0.281,0.274,0.149,0.091,��쐼,2.9,��
2019/06/01,19:50,0.196,0.179,0.299,0.280,0.272,0.148,0.092,��,3.2,��
2019/06/01,20:00,0.195,0.177,0.298,0.280,0.275,0.150,0.091,��쐼,2.7,��
2019/06/01,20:10,0.195,0.179,0.299,0.282,0.271,0.149,0.091,��쐼,2.9,��
2019/06/01,20:20,0.194,0.177,0.299,0.280,0.275,0.149,0.092,��쓌,3.4,��
2019/06/01,20:30,0.195,0.178,0.298,0.283,0.272,0.149,0.092,��쓌,3.6,��
2019/06/01,20:40,0.195,0.178,0.298,0.280,0.276,0.149,0.092,��,2.7,��
2019/06/01,20:50,0.196,0.179,0.297,0.283,0.272,0.149,0.092,��,2.3,��
2019/06/01,21:00,0.195,0.177,0.298,0.280,0.273,0.148,0.092,��쓌,2.1,��
2019/06/01,21:10,0.196,0.178,0.297,0.283,0.273,0.150,0.092,��쓌,2.2,��
2019/06/01,21:20,0.195,0.176,0.298,0.280,0.272,0.149,0.092,��,3.7,��
2019/06/01,21:30,0.196,0.179,0.296,0.282,0.274,0.149,0.091,��쐼,3.8,��
2019/06/01,21:40,0.195,0.178,0.298,0.279,0.271,0.148,0.092,��쐼,4.0,��
2019/06/01,21:50,0.195,0.178,0.298,0.282,0.274,0.149,0.092,��쐼,2.3,��
2019/06/01,22:00,0.196,0.179,0.299,0.280,0.271,0.149,0.091,��쐼,2.3,��
2019/06/01,22:10,0.194,0.178,0.298,0.281,0.274,0.149,0.092,�쐼,3.3,��
2019/06/01,22:20,0.195,0.179,0.300,0.282,0.271,0.149,0.091,�쐼,4.8,��
2019/06/01,22:30,0.194,0.178,0.297,0.280,0.275,0.150,0.092,�쐼,3.5,��
2019/06/01,22:40,0.197,0.178,0.299,0.281,0.271,0.150,0.091,�쐼,3.3,��
2019/06/01,22:50,0.195,0.178,0.298,0.282,0.272,0.149,0.092,�쐼,3.7,��
2019/06/01,23:00,0.196,0.178,0.299,0.283,0.272,0.149,0.091,�쐼,3.1,��
2019/06/01,23:10,0.195,0.178,0.297,0.280,0.272,0.150,0.092,�쐼,2.3,��
2019/06/01,23:20,0.196,0.178,0.300,0.282,0.273,0.149,0.092,�쐼,2.6,��
2019/06/01,23:30,0.195,0.178,0.297,0.281,0.273,0.150,0.092,��쐼,1.9,��
2019/06/01,23:40,0.197,0.179,0.302,0.281,0.273,0.149,0.092,��쐼,1.5,��
2019/06/01,23:50,0.195,0.178,0.297,0.280,0.270,0.149,0.091,��쐼,1.1,��
